When you browse on this site, cookies collect data to enhance your experience and personalize the content and advertising you see.
Visit our Privacy Policy to learn more. By continuing to use the site, you agree to this use of cookies and data.
  • în România
  • Lista ţărilor
  • Pe 7 zile
  • Temperatura apei
  • Meteo pe hartă
  • Widget-uri
  • user-avatar
    Intrare

    Meteo pe oră la Nha Trang

    Astăzi, 26 Ianuarie, Duminică

    Timp Temperatura Precipitaţii Vânt Presiune Umiditate
    00:00 +22°C° 0 mm 0 m/s 748 mmHg 92%
    01:00 +22°C° 0 mm 0 m/s 748 mmHg 93%
    02:00 +21°C° 0 mm 0 m/s 748 mmHg 93%
    03:00 +23°C° 0 mm 1 m/s 748 mmHg 93%
    04:00 +23°C° 0 mm 1 m/s 748 mmHg 93%
    05:00 +24°C° 0 mm 1 m/s 748 mmHg 92%
    06:00 +24°C° 0 mm 1 m/s 748 mmHg 91%
    07:00 +24°C° 0 mm 1 m/s 749 mmHg 87%
    08:00 +26°C° 0 mm 1 m/s 749 mmHg 80%
    09:00 +27°C° 0 mm 1 m/s 749 mmHg 74%
    10:00 +29°C° 0 mm 1 m/s 749 mmHg 67%
    11:00 +29°C° 0 mm 1 m/s 748 mmHg 67%
    12:00 +30°C° 0 mm 2 m/s 748 mmHg 66%
    13:00 +30°C° 0 mm 3 m/s 747 mmHg 66%
    14:00 +29°C° 0.1 mm 2 m/s 746 mmHg 71%
    15:00 +28°C° 0.1 mm 2 m/s 746 mmHg 75%
    16:00 +27°C° 0.1 mm 2 m/s 745 mmHg 79%
    17:00 +27°C° 0 mm 1 m/s 746 mmHg 82%
    18:00 +26°C° 0 mm 1 m/s 746 mmHg 86%
    19:00 +23°C° 0 mm 0 m/s 747 mmHg 90%
    20:00 +23°C° 0.1 mm 0 m/s 748 mmHg 91%
    21:00 +25°C° 0.1 mm 1 m/s 748 mmHg 91%
    22:00 +25°C° 0.1 mm 1 m/s 749 mmHg 92%
    23:00 +25°C° 0.3 mm 1 m/s 748 mmHg 92%

    Mâine, 27 Ianuarie, Luni

    Timp Temperatura Precipitaţii Vânt Presiune Umiditate
    00:00 +25°C° 0.3 mm 2 m/s 748 mmHg 93%
    01:00 +25°C° 0.3 mm 2 m/s 748 mmHg 93%
    02:00 +24°C° 0.1 mm 2 m/s 748 mmHg 93%
    03:00 +24°C° 0.1 mm 2 m/s 747 mmHg 92%
    04:00 +24°C° 0.1 mm 2 m/s 747 mmHg 92%
    05:00 +24°C° 0.1 mm 2 m/s 748 mmHg 92%
    06:00 +24°C° 0.1 mm 2 m/s 748 mmHg 91%
    07:00 +24°C° 0.1 mm 2 m/s 749 mmHg 90%
    08:00 +26°C° 0 mm 2 m/s 749 mmHg 83%
    09:00 +27°C° 0 mm 2 m/s 749 mmHg 76%
    10:00 +29°C° 0 mm 2 m/s 749 mmHg 68%
    11:00 +29°C° 0 mm 3 m/s 748 mmHg 68%
    12:00 +29°C° 0 mm 3 m/s 748 mmHg 67%
    13:00 +29°C° 0 mm 4 m/s 747 mmHg 67%
    14:00 +29°C° 0 mm 4 m/s 747 mmHg 70%
    15:00 +28°C° 0 mm 4 m/s 746 mmHg 73%
    16:00 +28°C° 0 mm 4 m/s 746 mmHg 76%
    17:00 +26°C° 0 mm 3 m/s 746 mmHg 82%
    18:00 +25°C° 0 mm 2 m/s 746 mmHg 87%
    19:00 +24°C° 0 mm 2 m/s 747 mmHg 93%
    20:00 +24°C° 0 mm 2 m/s 747 mmHg 93%
    21:00 +24°C° 0 mm 1 m/s 748 mmHg 92%
    22:00 +24°C° 0 mm 1 m/s 748 mmHg 92%
    23:00 +24°C° 0 mm 1 m/s 748 mmHg 92%

    Poimâine, 28 Ianuarie, Marţi

    Timp Temperatura Precipitaţii Vânt Presiune Umiditate
    00:00 +23°C° 0 mm 1 m/s 748 mmHg 91%
    01:00 +23°C° 0 mm 2 m/s 748 mmHg 91%
    02:00 +23°C° 0 mm 2 m/s 747 mmHg 91%
    03:00 +23°C° 0 mm 2 m/s 747 mmHg 91%
    04:00 +23°C° 0 mm 2 m/s 747 mmHg 91%
    05:00 +23°C° 0 mm 2 m/s 747 mmHg 90%
    06:00 +23°C° 0 mm 2 m/s 748 mmHg 89%
    07:00 +24°C° 0 mm 2 m/s 749 mmHg 88%
    08:00 +25°C° 0 mm 2 m/s 749 mmHg 80%
    09:00 +27°C° 0 mm 1 m/s 749 mmHg 73%
    10:00 +29°C° 0 mm 1 m/s 749 mmHg 66%
    11:00 +29°C° 0 mm 2 m/s 748 mmHg 67%
    12:00 +29°C° 0 mm 3 m/s 748 mmHg 68%
    13:00 +29°C° 0 mm 3 m/s 747 mmHg 68%
    14:00 +29°C° 0.1 mm 3 m/s 747 mmHg 72%
    15:00 +28°C° 0.1 mm 3 m/s 746 mmHg 76%
    16:00 +27°C° 0.1 mm 2 m/s 746 mmHg 79%
    17:00 +26°C° 0 mm 2 m/s 746 mmHg 83%
    18:00 +26°C° 0 mm 1 m/s 747 mmHg 88%
    19:00 +25°C° 0 mm 1 m/s 748 mmHg 92%
    20:00 +25°C° 0 mm 1 m/s 748 mmHg 91%
    21:00 +25°C° 0 mm 1 m/s 749 mmHg 90%
    22:00 +25°C° 0 mm 1 m/s 749 mmHg 89%
    23:00 +25°C° 0 mm 1 m/s 749 mmHg 89%

    29 Ianuarie, Miercuri

    Timp Temperatura Precipitaţii Vânt Presiune Umiditate
    00:00 +24°C° 0 mm 1 m/s 749 mmHg 88%
    01:00 +24°C° 0 mm 1 m/s 749 mmHg 88%
    02:00 +24°C° 0 mm 1 m/s 749 mmHg 87%
    03:00 +24°C° 0 mm 1 m/s 748 mmHg 87%
    04:00 +24°C° 0 mm 1 m/s 748 mmHg 86%
    05:00 +24°C° 0 mm 1 m/s 749 mmHg 86%
    06:00 +24°C° 0 mm 2 m/s 749 mmHg 85%
    07:00 +24°C° 0 mm 2 m/s 750 mmHg 85%
    08:00 +26°C° 0 mm 2 m/s 750 mmHg 78%
    09:00 +28°C° 0 mm 2 m/s 750 mmHg 72%
    10:00 +29°C° 0 mm 2 m/s 750 mmHg 65%
    11:00 +30°C° 0 mm 2 m/s 749 mmHg 66%
    12:00 +30°C° 0 mm 3 m/s 749 mmHg 67%
    13:00 +30°C° 0 mm 4 m/s 748 mmHg 68%
    14:00 +29°C° 0.2 mm 4 m/s 747 mmHg 72%
    15:00 +28°C° 0.2 mm 4 m/s 747 mmHg 77%
    16:00 +27°C° 0.2 mm 3 m/s 746 mmHg 82%
    17:00 +26°C° 0.1 mm 3 m/s 747 mmHg 85%
    18:00 +26°C° 0.1 mm 3 m/s 747 mmHg 87%
    19:00 +25°C° 0.1 mm 3 m/s 748 mmHg 89%
    20:00 +25°C° 0 mm 2 m/s 748 mmHg 89%
    21:00 +25°C° 0 mm 2 m/s 749 mmHg 89%
    22:00 +25°C° 0 mm 2 m/s 749 mmHg 89%
    23:00 +24°C° 0 mm 2 m/s 749 mmHg 90%

    30 Ianuarie, Joi

    Timp Temperatura Precipitaţii Vânt Presiune Umiditate
    00:00 +24°C° 0 mm 2 m/s 749 mmHg 91%
    01:00 +24°C° 0 mm 3 m/s 749 mmHg 91%
    02:00 +22°C° 0 mm 3 m/s 748 mmHg 92%
    03:00 +22°C° 0 mm 3 m/s 748 mmHg 92%
    04:00 +23°C° 0 mm 2 m/s 748 mmHg 92%
    05:00 +22°C° 0.1 mm 3 m/s 749 mmHg 91%
    06:00 +22°C° 0.1 mm 3 m/s 749 mmHg 90%
    07:00 +24°C° 0.1 mm 3 m/s 749 mmHg 89%
    08:00 +25°C° 0.7 mm 3 m/s 750 mmHg 86%
    09:00 +26°C° 0.7 mm 3 m/s 750 mmHg 83%
    10:00 +27°C° 0.7 mm 3 m/s 750 mmHg 80%
    11:00 +27°C° 0.8 mm 4 m/s 750 mmHg 80%
    12:00 +27°C° 0.8 mm 4 m/s 749 mmHg 79%
    13:00 +27°C° 0.8 mm 4 m/s 748 mmHg 79%
    14:00 +27°C° 0.7 mm 4 m/s 748 mmHg 82%
    15:00 +26°C° 0.7 mm 4 m/s 748 mmHg 85%
    16:00 +25°C° 0.7 mm 4 m/s 748 mmHg 87%
    17:00 +25°C° 0.5 mm 4 m/s 748 mmHg 89%
    18:00 +23°C° 0.5 mm 4 m/s 749 mmHg 90%
    19:00 +23°C° 0.5 mm 4 m/s 749 mmHg 92%
    20:00 +23°C° 0.6 mm 4 m/s 749 mmHg 92%
    21:00 +23°C° 0.6 mm 4 m/s 750 mmHg 92%
    22:00 +22°C° 0.6 mm 4 m/s 750 mmHg 92%
    23:00 +22°C° 0.8 mm 4 m/s 750 mmHg 92%

    31 Ianuarie, Vineri

    Timp Temperatura Precipitaţii Vânt Presiune Umiditate
    00:00 +22°C° 0.8 mm 4 m/s 750 mmHg 92%
    01:00 +22°C° 0.8 mm 3 m/s 750 mmHg 92%
    02:00 +22°C° 0.7 mm 3 m/s 749 mmHg 91%
    03:00 +22°C° 0.7 mm 3 m/s 749 mmHg 91%
    04:00 +22°C° 0.7 mm 3 m/s 749 mmHg 91%
    05:00 +22°C° 0.5 mm 3 m/s 749 mmHg 91%
    06:00 +22°C° 0.5 mm 3 m/s 750 mmHg 91%
    07:00 +22°C° 0.5 mm 3 m/s 750 mmHg 91%
    08:00 +23°C° 0.5 mm 4 m/s 751 mmHg 88%
    09:00 +23°C° 0.5 mm 4 m/s 751 mmHg 86%
    10:00 +25°C° 0.5 mm 4 m/s 751 mmHg 83%
    11:00 +25°C° 0.4 mm 4 m/s 751 mmHg 82%
    12:00 +26°C° 0.4 mm 4 m/s 750 mmHg 80%
    13:00 +26°C° 0.4 mm 4 m/s 749 mmHg 79%
    14:00 +25°C° 0.3 mm 4 m/s 749 mmHg 80%
    15:00 +25°C° 0.3 mm 4 m/s 749 mmHg 82%
    16:00 +25°C° 0.3 mm 4 m/s 748 mmHg 83%
    17:00 +23°C° 0.2 mm 4 m/s 749 mmHg 85%
    18:00 +22°C° 0.2 mm 4 m/s 749 mmHg 88%
    19:00 +22°C° 0.2 mm 3 m/s 749 mmHg 90%
    20:00 +22°C° 0.2 mm 3 m/s 750 mmHg 90%
    21:00 +22°C° 0.2 mm 3 m/s 750 mmHg 90%
    22:00 +22°C° 0.2 mm 3 m/s 750 mmHg 90%
    23:00 +21°C° 0.2 mm 3 m/s 750 mmHg 91%
    Arată mai mult